Weather observations for the past three days for
Long Beach, Long Beach Airport
Imperial (Metric)
Date Time (pdt) Wind (mph) Vis. (mi.) Weather Sky Cond. Temperature (ºF) Relative Humidity Wind Chill (°F) Heat Index (°F) Pressure Precipitation (in)
Air Dwpt 6 hour altimeter (in) sea level (mb) 1 hr 3 hr 6 hr
Max. Min.
17 03:53 Calm 10.00 Fair CLR 69.1 62.1 78% 29.94 1013.8
17 02:53 Calm 10.00 Fair CLR 70 62.1 76% 29.94 1013.9
17 01:53 Calm 10.00 Fair CLR 70 61 73% 29.94 1013.8
17 00:53 Calm 10.00 Fair CLR 71.1 57.9 63% 29.95 1014.0
16 23:53 NW 6 10.00 Fair CLR 71.1 57.9 63% 29.94 1013.8
16 22:53 NW 5 10.00 Fair CLR 72 57.9 80.1 72 61% 29.94 1013.8
16 21:53 NW 8 10.00 Fair CLR 72 59 64% 29.94 1013.8
16 20:53 NW 10 10.00 Fair CLR 72 59 64% 29.93 1013.5
16 19:53 NW 12 10.00 Fair CLR 73.9 57.9 57% 29.92 1013.2
16 18:53 W 13 10.00 Fair CLR 75.9 57.9 54% 78 29.91 1012.9
16 17:53 NW 13 10.00 Fair CLR 78.1 61 56% 80 29.91 1012.8
16 16:53 NW 13 10.00 Fair CLR 80.1 62.1 82 75.9 54% 81 29.92 1013.1
16 15:53 S 9 10.00 Fair CLR 80.1 62.1 54% 81 29.94 1013.8
16 14:53 S 12 10.00 Fair CLR 78.1 63 60% 80 29.96 1014.4
16 13:53 S 10 10.00 Fair CLR 77 63 62% 79 29.98 1015.2
16 12:53 S 9 10.00 Fair CLR 78.1 63 60% 80 29.99 1015.4
16 11:53 SW 9 10.00 Fair CLR 75.9 63 64% 78 30 1015.9
16 10:53 SW 7 10.00 Fair CLR 75.9 62.1 77 66.9 62% 78 30 1016.0
16 09:53 Vrbl 3 10.00 A Few Clouds FEW016 75 62.1 64% 77 30.01 1016.2
16 08:53 Calm 10.00 Mostly Cloudy BKN014 70 61 73% 30.02 1016.6
16 07:53 Vrbl 7 10.00 Partly Cloudy SCT014 70 60.1 71% 30.02 1016.4
16 06:53 Vrbl 3 10.00 Fair CLR 68 61 78% 29.99 1015.4
16 05:53 SE 3 10.00 Fair CLR 66.9 61 81% 29.98 1015.2
16 04:53 SE 3 10.00 Fair CLR 68 61 72 68 78% 29.97 1014.7
16 03:53 S 3 10.00 Fair CLR 68 61 78% 29.96 1014.4
16 02:53 SE 3 10.00 Fair CLR 70 60.1 71% 29.96 1014.6
16 01:53 Calm 10.00 Fair CLR 70 60.1 71% 29.97 1014.7
16 00:53 NW 5 10.00 Fair CLR 70 59 68% 29.98 1015.1
15 23:53 N 5 10.00 Fair CLR 71.1 57.9 63% 29.99 1015.4
15 22:53 NW 5 10.00 Fair CLR 72 57 78.1 71.1 59% 29.98 1015.2
15 21:53 NW 6 10.00 Fair CLR 71.1 60.1 68% 29.97 1014.9
15 20:53 NW 8 10.00 Fair CLR 72 61 68% 29.95 1014.1
15 19:53 NW 9 10.00 Fair CLR 73 59 62% 29.93 1013.4
15 18:53 NW 13 10.00 Fair CLR 75 59 58% 77 29.92 1013.0
15 17:53 NW 14 10.00 Fair CLR 78.1 60.1 54% 79 29.92 1013.2
15 16:53 NW 12 10.00 Fair CLR 78.1 61 84 73.9 56% 80 29.93 1013.3
15 15:53 NW 13 10.00 Fair CLR 80.1 62.1 54% 81 29.94 1013.6
15 14:53 NW 9 10.00 Fair CLR 82.9 62.1 49% 84 29.95 1014.1
15 13:53 S 8 10.00 Fair CLR 79 62.1 56% 80 29.98 1015.0
15 12:53 S 9 10.00 Fair CLR 75.9 62.1 62% 78 30.01 1016.0
15 11:53 SW 10 6.00 Fair with Haze CLR 75 62.1 64% 77 30.03 1016.7
15 10:53 S 6 10.00 A Few Clouds FEW014 75.9 63 75.9 66.9 64% 78 30.03 1016.9
15 09:53 Calm 7.00 A Few Clouds FEW014 73 62.1 69% 30.05 1017.6
15 08:53 N 5 8.00 Overcast OVC014 71.1 61 71% 30.06 1017.9
15 07:53 Calm 7.00 Mostly Cloudy BKN013 69.1 61 76% 30.07 1018.0
15 05:53 Calm 10.00 Overcast OVC012 68 61 78% 30.04 1017.2
15 04:53 W 5 10.00 Overcast OVC013 66.9 61 69.1 66.9 81% 30.03 1016.8
15 03:53 N 5 10.00 Fair CLR 66.9 60.1 79% 30.03 1016.8
15 02:53 N 3 10.00 Fair CLR 66.9 60.1 79% 30.02 1016.6
15 01:53 N 3 10.00 Fair CLR 66.9 60.1 79% 30.02 1016.6
15 00:53 NW 6 10.00 Fair CLR 68 61 78% 30.02 1016.5
14 23:53 NW 5 10.00 Fair CLR 68 61 78% 30.02 1016.6
14 22:53 NW 9 10.00 Fair CLR 69.1 61 81 68 76% 30.02 1016.6
14 21:53 NW 10 10.00 Fair CLR 69.1 61 76% 30.02 1016.6
14 20:53 NW 7 10.00 Fair CLR 70 61 73% 30.01 1016.0
14 19:53 W 8 10.00 Fair CLR 73 61 66% 29.99 1015.6
14 18:53 NW 9 10.00 Fair CLR 75.9 61 60% 78 29.99 1015.4
14 17:53 NW 7 10.00 Fair CLR 79 62.1 56% 80 29.99 1015.4
14 16:53 NW 12 10.00 Fair CLR 82 62.1 84.9 73.9 51% 83 29.99 1015.4
14 15:53 S 10 10.00 Fair CLR 82 62.1 51% 83 29.99 1015.5
14 14:53 S 9 10.00 Fair CLR 84 63 49% 85 30 1015.6
14 13:53 S 9 10.00 Fair CLR 81 63 54% 82 30.01 1016.1
14 12:53 Vrbl 5 9.00 Fair CLR 80.1 63 56% 81 30.03 1016.8
14 11:53 SW 6 9.00 Fair CLR 75 63 66% 77 30.05 1017.6
14 10:53 S 6 8.00 Fair CLR 73.9 63 75 66.9 69% 30.06 1017.9
14 09:53 Vrbl 3 6.00 Overcast with Haze OVC016 73.9 64 71% 30.06 1018.0
14 08:53 Calm 5.00 Overcast with Haze OVC013 71.1 63 76% 30.07 1018.2
14 07:53 Calm 5.00 Overcast with Haze OVC011 69.1 62.1 78% 30.07 1018.3
14 06:53 Calm 5.00 Overcast with Haze OVC013 68 63 84% 30.05 1017.3
14 05:53 NW 3 6.00 Fair with Haze CLR 68 62.1 81% 30.03 1016.8
14 04:53 NW 5 8.00 Fair CLR 68 62.1 70 68 81% 30.01 1016.0
Date Time (pdt) Wind (mph) Vis. (mi.) Weather Sky Cond. Air Dwpt Max. Min. Relative Humidity Wind Chill (°F) Heat Index (°F) altimeter (in) sea level (mb) 1 hr 3 hr 6 hr
6 hour
Temperature (ºF) Pressure Precipitation (in)